Weather reports worldwide

Advertisment
La Coruna/Alvedro, Spain (8002): temperature & dewpoint: 13.08.2019 00:00:00 - 19.08.2019 00:00:00 (CEST)La Coruna/Alvedro, Spain (8002): wind speed: 13.08.2019 00:00:00 - 19.08.2019 00:00:00 (CEST)La Coruna/Alvedro, Spain (8002): wind direction: 13.08.2019 00:00:00 - 19.08.2019 00:00:00 (CEST)La Coruna/Alvedro, Spain (8002): reduced air pressure: 13.08.2019 00:00:00 - 19.08.2019 00:00:00 (CEST)La Coruna/Alvedro, Spain (8002): visibility: 13.08.2019 00:00:00 - 19.08.2019 00:00:00 (CEST)
Date & Time tt [°C] td [°C] ff [km/h] ff [kn] dd ppp [hPa] vv [km]
19.08.2019 00:00:00 15,6 11,4 4 2 NW 1021,2 24
18.08.2019 23:00:00 16,5 11,0 4 2 NNE 1021,0 30
18.08.2019 22:00:00 17,6 10,8 11 6 N 1020,0 10
18.08.2019 21:00:00 18,1 11,9 9 5 N 1019,6 10
18.08.2019 20:00:00 19,4 11,8 13 7 N 1019,3 30
18.08.2019 19:00:00 19,7 12,3 11 6 N 1018,9 10
18.08.2019 18:00:00 21,1 12,6 16 9 N 1018,7 24
18.08.2019 17:00:00 21,0 11,7 15 8 NNE 1018,3 10
18.08.2019 16:00:00 21,3 11,6 15 8 N 1018,2 10
18.08.2019 15:00:00 20,6 11,5 13 7 NNE 1017,9 10
18.08.2019 14:00:00 20,6 11,4 15 8 NNE 1017,8 10
18.08.2019 13:00:00 20,1 12,0 13 7 N 1017,8 21
18.08.2019 12:00:00 19,3 13,4 11 6 N 1017,5 30
18.08.2019 11:00:00 17,9 13,4 11 6 N 1016,8 10
18.08.2019 10:00:00 16,5 14,5 13 7 N 1016,1 10
18.08.2019 09:00:00 15,9 15,9 5 3 NNW 1015,3 12
18.08.2019 08:00:00 15,9 15,9 13 7 NNW 1014,6 2,5
18.08.2019 07:00:00 16,5 16,5 8 4 N 1014,0 2,0
18.08.2019 06:00:00 16,2 16,2 11 6 N 1013,8 4,0
18.08.2019 05:00:00 16,4 16,4 22 12 NNW 1013,0 4,0
18.08.2019 04:00:00 19,8 19,8 13 7 W 1011,7 3,5
18.08.2019 03:00:00 21,3 17,9 16 9 SSW 1011,3 19
18.08.2019 02:00:00 21,1 18,1 16 9 SSW 1012,2 10
18.08.2019 01:00:00 21,4 17,8 28 15 SSW 1012,4 10
18.08.2019 00:00:00 21,4 17,8 18 10 SSW 1012,9 30
17.08.2019 23:00:00 21,2 18,2 11 6 S 1013,5 10
17.08.2019 22:00:00 21,8 18,0 18 10 SSW 1012,6 30
17.08.2019 21:00:00 22,5 18,1 24 13 SSW 1012,8 10
17.08.2019 20:00:00 23,3 18,5 21 11 SSW 1013,3 30
17.08.2019 19:00:00 24,2 19,1 24 13 SW 1013,5 10
17.08.2019 18:00:00 24,6 19,1 26 14 SW 1013,7 10
17.08.2019 17:00:00 24,8 18,9 29 16 SW 1014,0 30
17.08.2019 16:00:00 25,7 19,6 26 14 SW 1014,1 10
17.08.2019 15:00:00 24,9 19,6 16 9 SSW 1014,5 10
17.08.2019 14:00:00 23,9 19,0 22 12 SSW 1015,0 30
17.08.2019 13:00:00 24,6 18,9 21 11 SSW 1015,3 30
17.08.2019 12:00:00 23,1 18,8 16 9 S 1015,4 10
17.08.2019 11:00:00 22,1 18,5 18 10 SSW 1015,8 10
17.08.2019 10:00:00 21,0 18,2 22 12 SW 1015,9 10
17.08.2019 09:00:00 20,5 17,9 15 8 SSW 1015,7 30
17.08.2019 08:00:00 20,2 17,6 11 6 S 1015,7 30
17.08.2019 07:00:00 20,4 17,4 13 7 SSW 1015,7 30
17.08.2019 06:00:00 20,1 17,3 16 9 S 1016,0 30
17.08.2019 05:00:00 20,0 17,0 15 8 S 1016,2 30
17.08.2019 04:00:00 20,1 16,9 13 7 S 1016,7 10
17.08.2019 03:00:00 19,8 16,6 9 5 S 1017,5 10
17.08.2019 02:00:00 19,1 16,1 8 4 WSW 1017,9 30
17.08.2019 01:00:00 19,4 16,2 8 4 S 1017,9 30
17.08.2019 00:00:00 19,7 16,0 11 6 SW 1018,2 10
16.08.2019 23:00:00 20,8 16,4 15 8 SW 1018,4 30
16.08.2019 22:00:00 21,0 16,8 8 4 WSW 1017,9 10
16.08.2019 21:00:00 22,3 17,0 15 8 W 1017,3 30
16.08.2019 20:00:00 24,1 17,8 9 5 WNW 1017,2 30
16.08.2019 19:00:00 23,4 17,2 18 10 NW 1017,3 10
16.08.2019 18:00:00 25,2 17,4 18 10 NW 1017,5 30
16.08.2019 17:00:00 24,7 17,4 11 6 NNW 1017,8 10
16.08.2019 16:00:00 24,8 16,8 15 8 NNW 1018,3 10
16.08.2019 15:00:00 24,5 16,3 13 7 NNE 1018,5 10
16.08.2019 14:00:00 24,2 16,5 8 4 NE 1018,8 30
16.08.2019 13:00:00 23,6 16,7 5 3 N 1019,2 30
16.08.2019 12:00:00 21,5 15,6 5 3 NW 1019,4 30
16.08.2019 11:00:00 20,2 15,6 2 1 - 1019,5 10
16.08.2019 10:00:00 16,6 14,1 8 4 S 1019,8 30
16.08.2019 09:00:00 13,5 12,7 8 4 S 1020,2 27
16.08.2019 08:00:00 12,1 12,1 11 6 S 1020,3 20
16.08.2019 07:00:00 12,0 12,0 11 6 S 1020,3 13
16.08.2019 06:00:00 12,2 12,2 9 5 S 1020,3 13
16.08.2019 05:00:00 12,9 12,9 8 4 S 1020,4 17
16.08.2019 04:00:00 13,2 13,2 9 5 S 1020,4 19
16.08.2019 03:00:00 14,0 14,0 9 5 S 1021,0 10
16.08.2019 02:00:00 14,3 14,3 8 4 S 1021,3 23
16.08.2019 01:00:00 15,3 14,0 5 3 S 1021,4 21
16.08.2019 00:00:00 16,0 14,5 5 3 S 1021,5 10
15.08.2019 23:00:00 16,9 13,8 4 2 - 1021,9 10
15.08.2019 22:00:00 18,2 14,1 8 4 NW 1021,7 10
15.08.2019 21:00:00 19,7 14,1 15 8 N 1021,8 30
15.08.2019 20:00:00 21,2 14,1 11 6 N 1021,7 10
15.08.2019 19:00:00 21,6 13,8 13 7 N 1021,6 10
15.08.2019 18:00:00 21,6 13,4 16 9 NNW 1022,0 19
15.08.2019 17:00:00 22,6 14,4 11 6 N 1022,1 30
15.08.2019 16:00:00 21,7 14,0 15 8 N 1022,8 10
15.08.2019 15:00:00 21,6 14,2 13 7 N 1023,0 10
15.08.2019 14:00:00 21,1 14,9 15 8 N 1023,1 10
15.08.2019 13:00:00 20,7 14,8 11 6 N 1023,2 28
15.08.2019 12:00:00 20,3 14,4 9 5 NNE 1023,4 10
15.08.2019 11:00:00 19,1 14,1 8 4 N 1023,4 10
15.08.2019 10:00:00 18,7 15,5 2 1 E 1023,5 29
15.08.2019 09:00:00 16,0 16,0 0 0 N 1023,3 10
15.08.2019 08:00:00 14,7 14,7 5 3 S 1023,1 12
15.08.2019 07:00:00 15,2 15,2 2 1 - 1023,1 10
15.08.2019 06:00:00 15,7 15,7 0 0 N 1023,2 10
15.08.2019 05:00:00 15,9 15,9 0 0 N 1023,2 17
15.08.2019 04:00:00 16,7 15,1 2 1 - 1023,4 10
15.08.2019 03:00:00 17,1 15,8 2 1 S 1023,6 10
15.08.2019 02:00:00 17,0 15,5 0 0 N 1023,7 19
15.08.2019 01:00:00 17,2 15,7 5 3 NW 1023,6 16
15.08.2019 00:00:00 17,4 16,1 8 4 NNW 1023,5 16
14.08.2019 23:00:00 17,7 17,7 5 3 NNW 1023,2 9
14.08.2019 22:00:00 17,9 17,9 8 4 NNW 1022,6 8
14.08.2019 21:00:00 18,7 18,7 11 6 N 1022,5 8
14.08.2019 20:00:00 19,7 19,1 11 6 NW 1022,1 13
14.08.2019 19:00:00 20,6 18,7 16 9 NW 1021,9 10
14.08.2019 18:00:00 21,9 19,1 15 8 NNW 1021,8 10
14.08.2019 17:00:00 22,0 18,6 15 8 NW 1021,8 30
14.08.2019 16:00:00 21,9 18,9 13 7 NW 1021,8 30
14.08.2019 15:00:00 21,7 18,7 9 5 N 1021,9 10
14.08.2019 14:00:00 22,1 18,1 8 4 WNW 1022,0 30
14.08.2019 13:00:00 21,7 17,0 8 4 S 1021,8 30
14.08.2019 12:00:00 18,6 16,4 9 5 S 1021,9 10
14.08.2019 11:00:00 18,1 16,3 8 4 S 1021,8 25
14.08.2019 10:00:00 18,1 14,2 9 5 S 1021,3 10
14.08.2019 09:00:00 16,4 13,1 11 6 SSE 1021,1 30
14.08.2019 08:00:00 15,7 12,8 9 5 SSE 1020,7 30
14.08.2019 07:00:00 14,5 13,0 11 6 S 1020,8 10
14.08.2019 06:00:00 13,6 13,1 5 3 S 1020,9 30
14.08.2019 05:00:00 13,4 13,4 4 2 SE 1021,5 30
14.08.2019 04:00:00 13,6 13,6 11 6 S 1021,8 26
14.08.2019 03:00:00 13,6 13,5 9 5 S 1022,0 10
14.08.2019 02:00:00 14,4 13,6 4 2 S 1022,2 28
14.08.2019 01:00:00 14,6 13,1 8 4 S 1022,0 10
14.08.2019 00:00:00 15,0 13,2 9 5 SSW 1022,4 10
13.08.2019 23:00:00 15,8 13,0 4 2 NW 1022,9 30
13.08.2019 22:00:00 17,0 13,1 4 2 WNW 1022,7 30
13.08.2019 21:00:00 18,8 13,2 9 5 N 1022,4 10
13.08.2019 20:00:00 19,3 13,2 9 5 N 1022,2 10
13.08.2019 19:00:00 19,1 13,1 13 7 N 1022,3 30
13.08.2019 18:00:00 20,3 13,4 15 8 N 1022,2 10
13.08.2019 17:00:00 20,9 13,8 15 8 N 1022,3 10
13.08.2019 16:00:00 20,6 13,5 18 10 NNE 1022,6 23
13.08.2019 15:00:00 20,6 13,5 13 7 NNE 1022,8 10
13.08.2019 14:00:00 20,2 13,4 13 7 NNE 1023,2 10
13.08.2019 13:00:00 19,3 12,8 13 7 N 1023,4 30
13.08.2019 12:00:00 18,9 13,0 9 5 N 1023,7 28
13.08.2019 11:00:00 16,6 12,7 4 2 - 1024,2 10
13.08.2019 10:00:00 12,6 11,8 5 3 S 1024,2 10
13.08.2019 09:00:00 10,3 10,3 5 3 S 1024,3 10
13.08.2019 08:00:00 9,2 9,2 8 4 S 1024,2 2,5
13.08.2019 07:00:00 9,4 9,4 8 4 S 1023,9 0,2
13.08.2019 06:00:00 9,6 9,6 8 4 S 1023,8 0,2
13.08.2019 05:00:00 10,2 10,2 8 4 S 1023,8 0,5
13.08.2019 04:00:00 10,8 10,8 5 3 S 1024,2 3,8
13.08.2019 03:00:00 12,5 11,7 4 2 NW 1024,8 30
13.08.2019 02:00:00 12,6 10,7 2 1 - 1025,1 10
13.08.2019 01:00:00 14,2 11,2 2 1 NW 1025,4 10
13.08.2019 00:00:00 15,3 11,3 0 0 N 1025,7 10

tt = temperature
td = dewpoint
ff = wind speed
dd = wind direction
ppp = reduced air pressure
vv = visibility

Next stations